User: anonymous   Login
Location: Mentone
(34.5413°N, 85.5351°W)
Time: 15:02:09
(UTC-06:00)
Language:

ERBS - Orbit

View from above orbital plane
View from above orbital plane
View from above satellite
View from above satellite

Ground track
Ground track

The orbit data is extracted from the following two-line orbital elements,

1 15354U 84108B   17049.91798023 +.00002799 +00000-0 +71930-4 0  9990
2 15354 057.0082 287.2842 0007064 216.2598 143.7979 15.42799775779677
Epoch (UTC): 18 February 2017 22:01:53
Eccentricity: 0.0007064
inclination: 57.0082°
perigee height: 433 km
apogee height: 442 km
right ascension of ascending node: 287.2842°
argument of perigee: 216.2598°
revolutions per day: 15.42799775
mean anomaly at epoch: 143.7979°
orbit number at epoch: 77967

The dashed part of the orbit path shows where the satellite is in the earth's shadow,  

DLR